• In Hungary
  • List of Countries
  • For 7 days
  • Water Temperature
  • Satellite Maps
  • Weather Map
  • News
  • Weather Widgets
  • user-avatar
    Login

    Hourly Weather Krivolapovo

    Today, 20 August, Monday

    Time Temperature Precipitation Wind Pressure Humidity
    00:00 +17°C° 0 mm 2 mps 744 mmHg 72%
    01:00 +16°C° 0 mm 2 mps 744 mmHg 74%
    02:00 +16°C° 0 mm 2 mps 743 mmHg 78%
    03:00 +16°C° 0 mm 2 mps 743 mmHg 79%
    04:00 +16°C° 0 mm 2 mps 743 mmHg 80%
    05:00 +16°C° 0 mm 2 mps 743 mmHg 82%
    06:00 +17°C° 0 mm 3 mps 743 mmHg 77%
    07:00 +19°C° 0 mm 3 mps 743 mmHg 73%
    08:00 +21°C° 0 mm 3 mps 743 mmHg 67%
    09:00 +22°C° 0 mm 4 mps 743 mmHg 62%
    10:00 +23°C° 0 mm 4 mps 743 mmHg 58%
    11:00 +26°C° 0 mm 4 mps 743 mmHg 53%
    12:00 +26°C° 0 mm 4 mps 743 mmHg 53%
    13:00 +26°C° 0 mm 4 mps 742 mmHg 52%
    14:00 +27°C° 0 mm 4 mps 742 mmHg 52%
    15:00 +26°C° 0.1 mm 4 mps 742 mmHg 56%
    16:00 +26°C° 0.1 mm 3 mps 741 mmHg 61%
    17:00 +25°C° 0.1 mm 3 mps 741 mmHg 66%
    18:00 +24°C° 0.1 mm 2 mps 741 mmHg 70%
    19:00 +21°C° 0.1 mm 2 mps 741 mmHg 75%
    20:00 +19°C° 0.1 mm 2 mps 741 mmHg 80%
    21:00 +19°C° 0 mm 2 mps 740 mmHg 82%
    22:00 +18°C° 0 mm 2 mps 740 mmHg 84%
    23:00 +18°C° 0 mm 3 mps 740 mmHg 86%

    Tomorrow, 21 August, Tuesday

    Time Temperature Precipitation Wind Pressure Humidity
    00:00 +18°C° 0 mm 3 mps 740 mmHg 87%
    01:00 +17°C° 0 mm 3 mps 740 mmHg 88%
    02:00 +17°C° 0 mm 3 mps 739 mmHg 89%
    03:00 +17°C° 0 mm 3 mps 739 mmHg 89%
    04:00 +17°C° 0 mm 4 mps 739 mmHg 89%
    05:00 +17°C° 0 mm 4 mps 738 mmHg 89%
    06:00 +19°C° 0 mm 5 mps 738 mmHg 82%
    07:00 +20°C° 0 mm 6 mps 738 mmHg 76%
    08:00 +22°C° 0 mm 6 mps 738 mmHg 70%
    09:00 +23°C° 0.2 mm 7 mps 737 mmHg 67%
    10:00 +24°C° 0.2 mm 8 mps 737 mmHg 65%
    11:00 +26°C° 0.2 mm 8 mps 737 mmHg 62%
    12:00 +26°C° 1.1 mm 8 mps 736 mmHg 66%
    13:00 +24°C° 1.1 mm 8 mps 736 mmHg 69%
    14:00 +24°C° 1.1 mm 7 mps 736 mmHg 72%
    15:00 +23°C° 0.7 mm 7 mps 736 mmHg 75%
    16:00 +22°C° 0.7 mm 6 mps 736 mmHg 77%
    17:00 +21°C° 0.7 mm 5 mps 736 mmHg 79%
    18:00 +20°C° 0.1 mm 4 mps 736 mmHg 82%
    19:00 +19°C° 0.1 mm 4 mps 737 mmHg 85%
    20:00 +17°C° 0.1 mm 3 mps 737 mmHg 88%
    21:00 +16°C° 0 mm 3 mps 737 mmHg 88%
    22:00 +14°C° 0 mm 3 mps 738 mmHg 88%
    23:00 +13°C° 0 mm 3 mps 738 mmHg 88%

    Day after tomorrow, 22 August, Wednesday

    Time Temperature Precipitation Wind Pressure Humidity
    00:00 +13°C° 0 mm 3 mps 738 mmHg 88%
    01:00 +12°C° 0 mm 3 mps 739 mmHg 88%
    02:00 +12°C° 0 mm 2 mps 739 mmHg 88%
    03:00 +11°C° 0 mm 3 mps 739 mmHg 88%
    04:00 +10°C° 0 mm 3 mps 740 mmHg 89%
    05:00 +10°C° 0 mm 3 mps 740 mmHg 89%
    06:00 +12°C° 0 mm 3 mps 740 mmHg 82%
    07:00 +13°C° 0 mm 4 mps 741 mmHg 76%
    08:00 +15°C° 0 mm 5 mps 741 mmHg 69%
    09:00 +16°C° 0 mm 5 mps 741 mmHg 64%
    10:00 +17°C° 0 mm 5 mps 741 mmHg 59%
    11:00 +19°C° 0 mm 6 mps 742 mmHg 53%
    12:00 +19°C° 0 mm 6 mps 742 mmHg 52%
    13:00 +19°C° 0 mm 5 mps 742 mmHg 51%
    14:00 +20°C° 0 mm 5 mps 742 mmHg 49%
    15:00 +19°C° 0 mm 5 mps 742 mmHg 53%
    16:00 +19°C° 0 mm 4 mps 743 mmHg 57%
    17:00 +18°C° 0 mm 3 mps 743 mmHg 61%
    18:00 +17°C° 0 mm 3 mps 744 mmHg 65%
    19:00 +14°C° 0 mm 3 mps 744 mmHg 68%
    20:00 +12°C° 0 mm 3 mps 744 mmHg 72%
    21:00 +12°C° 0 mm 3 mps 745 mmHg 74%
    22:00 +11°C° 0 mm 3 mps 745 mmHg 76%
    23:00 +10°C° 0 mm 2 mps 746 mmHg 78%

    23 August, Thursday

    Time Temperature Precipitation Wind Pressure Humidity
    00:00 +10°C° 0 mm 2 mps 746 mmHg 79%
    01:00 +9°C° 0 mm 2 mps 746 mmHg 80%
    02:00 +9°C° 0 mm 2 mps 747 mmHg 81%
    03:00 +8°C° 0 mm 2 mps 747 mmHg 82%
    04:00 +8°C° 0 mm 2 mps 747 mmHg 82%
    05:00 +8°C° 0 mm 2 mps 747 mmHg 83%
    06:00 +10°C° 0 mm 2 mps 748 mmHg 76%
    07:00 +13°C° 0 mm 1 mps 748 mmHg 69%
    08:00 +15°C° 0 mm 1 mps 748 mmHg 62%
    09:00 +16°C° 0 mm 1 mps 748 mmHg 57%
    10:00 +17°C° 0 mm 2 mps 748 mmHg 51%
    11:00 +19°C° 0 mm 2 mps 748 mmHg 46%
    12:00 +19°C° 0 mm 2 mps 748 mmHg 45%
    13:00 +19°C° 0 mm 2 mps 748 mmHg 44%
    14:00 +21°C° 0 mm 1 mps 747 mmHg 43%
    15:00 +21°C° 0 mm 1 mps 747 mmHg 46%
    16:00 +21°C° 0 mm 1 mps 747 mmHg 50%
    17:00 +20°C° 0 mm 1 mps 747 mmHg 53%
    18:00 +18°C° 0 mm 1 mps 747 mmHg 57%
    19:00 +15°C° 0 mm 1 mps 747 mmHg 60%
    20:00 +13°C° 0 mm 0 mps 747 mmHg 63%
    21:00 +13°C° 0 mm 1 mps 747 mmHg 65%
    22:00 +13°C° 0 mm 1 mps 747 mmHg 66%
    23:00 +12°C° 0 mm 1 mps 748 mmHg 67%

    24 August, Friday

    Time Temperature Precipitation Wind Pressure Humidity
    00:00 +12°C° 0 mm 1 mps 748 mmHg 68%
    01:00 +12°C° 0 mm 1 mps 748 mmHg 70%
    02:00 +10°C° 0 mm 2 mps 748 mmHg 71%
    03:00 +10°C° 0 mm 2 mps 748 mmHg 72%
    04:00 +10°C° 0 mm 2 mps 747 mmHg 73%
    05:00 +10°C° 0 mm 2 mps 747 mmHg 75%
    06:00 +13°C° 0 mm 2 mps 747 mmHg 70%
    07:00 +15°C° 0 mm 2 mps 747 mmHg 65%
    08:00 +17°C° 0 mm 2 mps 747 mmHg 60%
    09:00 +18°C° 0 mm 2 mps 747 mmHg 56%
    10:00 +20°C° 0 mm 3 mps 747 mmHg 51%
    11:00 +21°C° 0 mm 3 mps 747 mmHg 47%
    12:00 +21°C° 0 mm 3 mps 747 mmHg 46%
    13:00 +22°C° 0 mm 3 mps 746 mmHg 45%
    14:00 +22°C° 0 mm 3 mps 746 mmHg 44%
    15:00 +23°C° 0 mm 2 mps 746 mmHg 48%
    16:00 +21°C° 0 mm 2 mps 746 mmHg 52%
    17:00 +21°C° 0 mm 2 mps 745 mmHg 56%
    18:00 +19°C° 0 mm 2 mps 745 mmHg 60%
    19:00 +17°C° 0 mm 2 mps 745 mmHg 63%
    20:00 +15°C° 0 mm 2 mps 745 mmHg 66%
    21:00 +15°C° 0 mm 2 mps 745 mmHg 68%
    22:00 +14°C° 0 mm 2 mps 745 mmHg 69%
    23:00 +14°C° 0 mm 2 mps 745 mmHg 70%

    25 August, Saturday

    Time Temperature Precipitation Wind Pressure Humidity
    00:00 +14°C° 0 mm 2 mps 745 mmHg 71%
    01:00 +13°C° 0 mm 2 mps 745 mmHg 71%
    02:00 +13°C° 0 mm 2 mps 745 mmHg 72%
    03:00 +13°C° 0 mm 2 mps 745 mmHg 73%
    04:00 +13°C° 0 mm 2 mps 745 mmHg 73%
    05:00 +12°C° 0 mm 2 mps 745 mmHg 74%
    06:00 +14°C° 0 mm 2 mps 745 mmHg 69%
    07:00 +16°C° 0 mm 2 mps 745 mmHg 65%
    08:00 +18°C° 0 mm 3 mps 745 mmHg 60%
    09:00 +20°C° 0 mm 3 mps 745 mmHg 55%
    10:00 +21°C° 0 mm 3 mps 745 mmHg 50%
    11:00 +24°C° 0 mm 3 mps 745 mmHg 45%
    12:00 +23°C° 0 mm 4 mps 745 mmHg 44%
    13:00 +25°C° 0 mm 4 mps 744 mmHg 44%
    14:00 +25°C° 0 mm 4 mps 744 mmHg 44%
    15:00 +24°C° 0 mm 3 mps 744 mmHg 48%
    16:00 +22°C° 0 mm 3 mps 743 mmHg 52%
    17:00 +23°C° 0 mm 2 mps 743 mmHg 57%
    18:00 +20°C° 0 mm 2 mps 743 mmHg 59%
    19:00 +18°C° 0 mm 2 mps 743 mmHg 62%
    20:00 +16°C° 0 mm 2 mps 743 mmHg 65%
    21:00 +16°C° 0 mm 2 mps 743 mmHg 65%
    22:00 +15°C° 0 mm 2 mps 743 mmHg 65%
    23:00 +15°C° 0 mm 2 mps 743 mmHg 65%
    Show more